Back to catalog

ELECTRON KICK STAGE R/B

AliveVLEO
NORAD 68293·ROCKET BODY·🇺🇸 United States

Launched Mar 20, 2026 from Rocket Lab Launch Complex 1

Loading…

Next Passes (next 24 hours)

TLE

FreshSource: Space-Track

Epoch: Sep 14, 2026, 14:21 UTC

1 68293U 26056C   26257.59825405  .00120091  00000-0  96132-3 0  9994
2 68293  50.2819 218.8029 0098227  30.8092 329.8598 15.63907937 27615

Track ELECTRON KICK STAGE R/B in real time with AllMySat

Download on the App Store